Погода в Караклах

Россия / Чувашская Республика     55°26′07″N   47°32′31″E
темп.,
°C
ветер,
м/с
пор.,
м/с
влажн.,
%
обл.,
%
осадки,
мм/ч
давл.,
гПа
погр.,
м
21 апреля, ср
ср2100:00+5юв81745100 0.0 1024689
03:00+4юв91847100 0.0 1022728
06:00+3юв101958100 0.4 1021820
09:00+2юв112082100 3.1 1020832
12:00+3ююв111979100 0.1 1020819
15:00+2ююв111884100 0.6 1019676
18:00+2ююв101892100 0.6 1019672
21:00+2ююв81794100 0.7 1018617
22 апреля, чт
чт2200:00+4ю81794100 0.2 1017771
03:00+5ююз51189100 0.3 1019537
06:00+5ю5995100 0.1 1021318
09:00+6ююв698945 0.1 1021423
12:00+12ю71064100 0.3 10211499
15:00+13ююз7956100 1.4 10211811
18:00+10ююз587246 1.9 1022283
21:00+8ю128371 2.6 102335
23 апреля, пт
пт2300:00+5ююз11885 0.0 102412
03:00+5ю11875 0.0 102410
06:00+6ю11835 0.0 102520
09:00+11ююв23625 0.0 1025503
12:00+14ююв335140 0.0 10241574
15:00+14юв3453100 0.0 1023645
18:00+12вюв366360 0.0 1023148
21:00+9юв49763 0.0 1023183
24 апреля, сб
сб2400:00+7юв368710 0.0 102189
03:00+6вюв3592100 0.0 102085
06:00+6в388999 0.0 1019291
09:00+10в467497 0.0 1017675
12:00+11вюв4566100 0.1 10151132
15:00+10вюв5673100 0.2 1014788
18:00+9вюв577772 0.1 1012600
21:00+6вюв5989100 0.1 1011287
25 апреля, вс
вс2500:00+5вюв51295100 0.0 1009350
03:00+6юв61392100 1.4 1006771
06:00+4з71393100 4.1 1008819
09:00+7зюз911665 4.3 10091307
12:00+10зюз9114775 0.0 10102269
15:00+10зюз8114096 0.0 10102511
18:00+8зюз58554 0.0 1011429
21:00+4юз38763 0.3 1013158